This demonstration page uses our WeatherBlox Daily Observations layout. Learn more.

Left ArrowRight Arrow

34.74481, -87.66753

Hourly Observations for February 15, 2021

Temp ( °F °C ) Dew Point ( °F °C ) Humidity (%) Winds ( mph kmh ) Pressure ( in mb ) Visibility ( mi km ) Precip ( " mm )
12:53 am 00:53 Cloudy 28 -2.2 21 -6.1 75 75 N 7 11 30.14 1021 7 11 0.00 0.00
1:53 am 01:53 Cloudy 28 -2.2 21 -6.1 75 75 NNE 8 13 30.09 1019 7 11 0.00 0.00
2:53 am 02:53 Cloudy with Haze 28 -2.2 22 -5.6 78 78 N 6 9 30.09 1019 6 10 0.00 0.00
3:10 am 03:10 Cloudy 28 -2.2 22 -5.6 78 78 N 6 9 30.12 1020 7 11 0.00 0.00
3:53 am 03:53 Cloudy with Haze 28 -2.2 22 -5.6 78 78 NE 9 15 30.06 1018 3 5 0.00 0.00
4:16 am 04:16 Cloudy with Haze 28 -2.2 22 -5.6 78 78 N 9 15 30.10 1019 3 4 0.00 0.00
4:53 am 04:53 Cloudy with Haze 28 -2.2 22 -5.6 78 78 NNE 8 13 30.06 1018 2 3 0.00 0.00
5:20 am 05:20 Cloudy with Haze 28 -2.2 22 -5.6 78 78 NE 7 11 30.10 1019 2 3 0.00 0.00
5:53 am 05:53 Cloudy with Haze 28 -2.2 22 -5.6 78 78 N 6 9 30.06 1018 3 4 0.00 0.00
6:53 am 06:53 Cloudy with Haze 28 -2.2 22 -5.6 78 78 ENE 8 13 30.02 1017 2 3 0.00 0.00
7:07 am 07:07 Cloudy with Haze 28 -2.2 23 -5 81 81 NE 9 15 30.04 1017 2 3 0.00 0.00
7:14 am 07:14 Cloudy with Haze 28 -2.2 23 -5 81 81 NE 9 15 30.04 1017 2 2 0.00 0.00
7:42 am 07:42 Cloudy with Light Freezing Rain 29 -1.7 23 -5 78 78 NNE 8 13 30.03 1017 2 2 0.00 0.00
7:53 am 07:53 Cloudy with Light Freezing Rain 29 -1.7 24 -4.4 82 82 ENE 10 17 29.98 1015 2 3 0.01 0.25
8:16 am 08:16 Cloudy with Light Freezing Rain 29 -1.7 23 -5 78 78 NE 13 20 29.98 1015 3 5 0.00 0.00
8:24 am 08:24 Cloudy with Light Wintry Mix 29 -1.7 23 -5 78 78 NE 12 19 29.98 1015 4 6 0.00 0.00
8:53 am 08:53 Cloudy with Haze 29 -1.7 24 -4.4 82 82 E 9 15 29.95 1014 5 8 0.00 0.00
9:25 am 09:25 Cloudy with Light Freezing Rain 30 -1.1 24 -4.4 79 79 NE 9 15 29.93 1014 3 5 0.00 0.00
9:46 am 09:46 Cloudy 30 -1.1 25 -3.9 82 82 NNE 8 13 29.92 1013 4 6 0.01 0.25
9:53 am 09:53 Cloudy with Light Wintry Mix 31 -0.6 25 -3.9 79 79 NE 10 17 29.88 1012 4 6 0.01 0.25
10:03 am 10:03 Cloudy with Light Freezing Rain 30 -1.1 25 -3.9 82 82 NE 10 17 29.89 1012 4 6 0.00 0.00
10:13 am 10:13 Cloudy 31 -0.6 25 -3.9 79 79 NE 8 13 29.89 1012 5 8 0.00 0.00
10:43 am 10:43 Cloudy with Freezing Rain 31 -0.6 25 -3.9 79 79 N 7 11 29.91 1013 4 6 0.00 0.00
10:53 am 10:53 Cloudy with Freezing Rain 31 -0.6 25 -3.9 79 79 NW 10 17 29.90 1013 2 3 0.04 1.02
11:38 am 11:38 Cloudy with Freezing Rain 30 -1.1 25 -3.9 82 82 W 20 31 29.99 1016 1 1 0.16 4.06
11:50 am 11:50 Cloudy with Light Wintry Mix 28 -2 23 -5 80 80 NW 10 17 29.95 1014 1 1 0.21 5.33
11:53 am 11:53 Cloudy with Freezing Rain 29 -1.7 24 -4.4 82 82 NW 14 22 29.92 1013 1 1 0.22 5.59
12:02 pm 12:02 Cloudy with Light Snow 29 -1.7 23 -5 78 78 NW 13 20 29.95 1014 1 1 0.01 0.25
12:12 pm 12:12 Cloudy with Snow 28 -2.2 22 -5.6 78 78 NNW 7 11 29.93 1014 1 1 0.02 0.51
12:26 pm 12:26 Cloudy with Light Wintry Mix 29 -1.7 23 -5 78 78 NW 5 7 29.92 1013 1 2 0.04 1.02
12:53 pm 12:53 Cloudy with Light Wintry Mix 30 -1.1 23 -5 75 75 NNE 9 15 29.82 1010 2 3 0.05 1.27
1:12 pm 13:12 Cloudy with Freezing Rain 30 -1.1 24 -4.4 79 79 NNE 7 11 29.84 1011 3 4 0.03 0.76
1:20 pm 13:20 Cloudy with Light Freezing Rain 31 -0.6 25 -3.9 79 79 NE 9 15 29.80 1009 3 5 0.04 1.02
1:28 pm 13:28 Cloudy with Light Wintry Mix 31 -0.6 25 -3.9 79 79 NE 9 15 29.79 1009 4 6 0.04 1.02
1:53 pm 13:53 Cloudy 31 -0.6 25 -3.9 79 79 NNE 5 7 29.78 1009 7 11 0.04 1.02
2:35 pm 14:35 Cloudy with Light Wintry Mix 32 0 26 -3.3 79 79 NW 3 6 29.83 1010 2 3 0.00 0.00
2:44 pm 14:44 Cloudy with Light Freezing Rain 32 0 26 -3.3 79 79 NW 5 7 29.82 1010 1 2 0.01 0.25
2:53 pm 14:53 Cloudy with Light Freezing Rain 32 0 26 -3.3 79 79 NNW 7 11 29.79 1009 1 2 0.01 0.25
3:11 pm 15:11 Cloudy 31 -0.6 26 -3.3 82 82 NW 8 13 29.81 1010 2 3 0.01 0.25
3:24 pm 15:24 Cloudy with Light Freezing Rain 31 -0.6 25 -3.9 79 79 WNW 9 15 29.82 1010 3 4 0.01 0.25
3:48 pm 15:48 Cloudy with Light Freezing Rain 30 -1 25 -4 80 80 WNW 10 17 29.82 1010 2 3 0.02 0.51
3:53 pm 15:53 Cloudy with Light Freezing Rain 30 -1.1 24 -4.4 79 79 WNW 12 19 29.82 1010 3 4 0.02 0.51
4:12 pm 16:12 Cloudy 29 -1.7 23 -5 78 78 WNW 16 26 29.84 1011 3 5 0.00 0.00
4:19 pm 16:19 Cloudy 29 -1.7 23 -5 78 78 W 20 31 29.84 1011 2 3 0.00 0.00
4:27 pm 16:27 Cloudy with Light Freezing Rain 28 -2.2 22 -5.6 78 78 WNW 21 33 29.85 1011 2 3 0.00 0.00
4:34 pm 16:34 Cloudy with Light Freezing Rain 27 -2.8 21 -6.1 78 78 WNW 18 30 29.86 1011 3 4 0.00 0.00
4:36 pm 16:36 Cloudy 27 -2.8 21 -6.1 78 78 WNW 18 30 29.87 1011 3 5 0.00 0.00
4:53 pm 16:53 Cloudy with Haze 27 -2.8 21 -6.1 78 78 WNW 21 33 29.86 1011 3 5 0.00 0.00
5:00 pm 17:00 Cloudy with Haze 26 -3.3 20 -6.7 78 78 WNW 20 31 29.90 1012 2 3 0.00 0.00
5:09 pm 17:09 Cloudy with Haze 25 -3.9 19 -7.2 78 78 WNW 21 33 29.89 1012 2 3 0.00 0.00
5:22 pm 17:22 Cloudy with Haze 25 -3.9 18 -7.8 75 75 WNW 14 22 29.90 1012 2 3 0.00 0.00
5:35 pm 17:35 Cloudy with Haze 24 -4.4 18 -7.8 77 77 WNW 13 20 29.91 1013 4 6 0.00 0.00
5:53 pm 17:53 Cloudy with Haze 24 -4.4 17 -8.3 75 75 NW 15 24 29.89 1012 5 8 0.00 0.00
6:44 pm 18:44 Cloudy 22 -5.6 15 -9.4 75 75 WNW 17 28 29.96 1015 9 14 0.00 0.00
6:53 pm 18:53 Cloudy 21 -6.1 14 -10 74 74 NW 14 22 29.93 1014 10 16 0.00 0.00
7:53 pm 19:53 Cloudy 20 -6.7 13 -10.6 74 74 WNW 10 17 29.95 1014 9 14 0.00 0.00
8:26 pm 20:26 Cloudy 19 -7.2 11 -11.7 71 71 WNW 13 20 30.00 1016 10 16 0.00 0.00
8:37 pm 20:37 Cloudy 19 -7.2 11 -11.7 71 71 WNW 14 22 30.00 1016 10 16 0.00 0.00
8:53 pm 20:53 Cloudy 18 -7.8 11 -11.7 74 74 WNW 10 17 29.98 1015 10 16 0.00 0.00
9:07 pm 21:07 Cloudy 18 -7.8 10 -12.2 71 71 WNW 13 20 30.01 1016 10 16 0.00 0.00
9:38 pm 21:38 Cloudy with Light Snow 18 -7.8 10 -12.2 71 71 WNW 12 19 30.03 1017 3 5 0.00 0.00
9:46 pm 21:46 Cloudy with Light Snow 18 -7.8 10 -12.2 71 71 WNW 12 19 30.03 1017 3 4 0.00 0.00
9:53 pm 21:53 Cloudy with Light Snow 18 -7.8 11 -11.7 74 74 W 13 20 30.00 1016 3 4 0.00 0.00
10:08 pm 22:08 Cloudy with Light Snow 17 -8.3 9 -12.8 70 70 WNW 14 22 30.04 1017 4 6 0.00 0.00
10:50 pm 22:50 Cloudy 16 -9 9 -13 73 73 NW 13 20 30.04 1017 10 16 0.00 0.00
10:53 pm 22:53 Cloudy 16 -8.9 8 -13.3 71 71 WNW 12 19 30.01 1016 10 16 0.00 0.00
11:21 pm 23:21 Cloudy with Light Snow 16 -8.9 8 -13.3 71 71 W 14 22 30.07 1018 4 6 0.00 0.00
11:53 pm 23:53 Cloudy with Light Snow 15 -9.4 8 -13.3 74 74 W 10 17 30.05 1018 5 8 0.00 0.00

Powered by AerisWeather